{"data":{"norad_id":63472,"epoch":"2026-09-20T22:36:02.600064Z","epoch_age_seconds":117527,"freshness":"FRESH","line1":"1 63472U 25070N   26263.94169676  .00009118  00000+0  34038-3 0  9992","line2":"2 63472  42.9997 237.4719 0001421 259.6302 100.4389 15.27586011 82834","mean_motion":15.27586011,"eccentricity":0.0001421,"inclination_deg":42.9997,"raan_deg":237.4719,"arg_perigee_deg":259.6302,"mean_anomaly_deg":100.4389,"bstar":0.00034038,"rev_number":8283,"period_min":94.26637777714,"perigee_km":482.05612501565,"apogee_km":484.00606898881,"semimajor_km":6861.1680970022,"source":"CELESTRAK","updated_at":"2026-09-21T09:00:35.009659Z"}}